Year,Month,Day,Hour,Minute,Value (Times are PST for temperature in C)
2011,10,15,00,02,6.30
2011,10,15,00,03,6.20
2011,10,15,00,04,6.20
2011,10,15,00,06,6.20
2011,10,15,00,07,6.20
2011,10,15,00,08,6.20
2011,10,15,00,09,6.20
2011,10,15,00,10,6.20
2011,10,15,00,11,6.20
2011,10,15,00,12,6.10
2011,10,15,00,13,6.10
2011,10,15,00,14,6.10
2011,10,15,00,15,6.00
2011,10,15,00,16,5.90
2011,10,15,00,17,5.90
2011,10,15,00,18,5.90
2011,10,15,00,19,5.80
2011,10,15,00,20,5.80
2011,10,15,00,21,5.80
2011,10,15,00,22,5.80
2011,10,15,00,23,5.80
2011,10,15,00,24,5.80
2011,10,15,00,25,5.70
2011,10,15,00,26,5.70
2011,10,15,00,27,5.70
2011,10,15,00,28,5.70
2011,10,15,00,29,5.70
2011,10,15,00,30,5.70
2011,10,15,00,31,5.70
2011,10,15,00,32,5.60
2011,10,15,00,33,5.60
2011,10,15,00,35,5.70
2011,10,15,00,36,5.70
2011,10,15,00,37,5.70
2011,10,15,00,38,5.70
2011,10,15,00,39,5.70
2011,10,15,00,40,5.70
2011,10,15,00,41,5.70
2011,10,15,00,42,5.70
2011,10,15,00,43,5.70
2011,10,15,00,44,5.70
2011,10,15,00,45,5.70
2011,10,15,00,46,5.80
2011,10,15,00,47,5.80
2011,10,15,00,48,5.80
2011,10,15,00,49,5.90
2011,10,15,00,50,5.90
2011,10,15,00,51,5.90
2011,10,15,00,52,6.00
2011,10,15,00,53,5.90
2011,10,15,00,54,6.00
2011,10,15,00,55,5.90
2011,10,15,00,56,5.90
2011,10,15,00,57,5.90
2011,10,15,00,59,5.80
2011,10,15,01,00,5.80
2011,10,15,01,01,5.70
2011,10,15,01,02,5.70
2011,10,15,01,03,5.60
2011,10,15,01,05,5.60
2011,10,15,01,06,5.60
2011,10,15,01,07,5.60
2011,10,15,01,08,5.70
2011,10,15,01,09,5.70
2011,10,15,01,10,5.70
2011,10,15,01,11,5.80
2011,10,15,01,12,5.80
2011,10,15,01,13,5.80
2011,10,15,01,14,5.90
2011,10,15,01,15,5.90
2011,10,15,01,16,6.00
2011,10,15,01,17,6.10
2011,10,15,01,18,6.10
2011,10,15,01,19,6.20
2011,10,15,01,20,6.20
2011,10,15,01,21,6.20
2011,10,15,01,22,6.30
2011,10,15,01,23,6.30
2011,10,15,01,24,6.30
2011,10,15,01,25,6.30
2011,10,15,01,26,6.30
2011,10,15,01,27,6.30
2011,10,15,01,28,6.40
2011,10,15,01,29,6.40
2011,10,15,01,30,6.40
2011,10,15,01,31,6.40
2011,10,15,01,32,6.40
2011,10,15,01,33,6.40
2011,10,15,01,34,6.40
2011,10,15,01,35,6.40
2011,10,15,01,36,6.40
2011,10,15,01,37,6.40
2011,10,15,01,38,6.40
2011,10,15,01,39,6.40
2011,10,15,01,40,6.40
2011,10,15,01,41,6.40
2011,10,15,01,42,6.40
2011,10,15,01,43,6.40
2011,10,15,01,44,6.40
2011,10,15,01,45,6.40
2011,10,15,01,46,6.40
2011,10,15,01,47,6.40
2011,10,15,01,48,6.40
2011,10,15,01,49,6.40
2011,10,15,01,50,6.40
2011,10,15,01,51,6.40
2011,10,15,01,53,6.40
2011,10,15,01,54,6.40
2011,10,15,01,55,6.30
2011,10,15,01,56,6.30
2011,10,15,01,57,6.30
2011,10,15,01,58,6.20
2011,10,15,01,59,6.20
2011,10,15,02,00,6.10
2011,10,15,02,01,6.10
2011,10,15,02,02,6.10
2011,10,15,02,03,6.10
2011,10,15,02,04,6.00
2011,10,15,02,06,6.00
2011,10,15,02,07,6.00
2011,10,15,02,08,6.00
2011,10,15,02,09,6.00
2011,10,15,02,10,6.10
2011,10,15,02,11,6.10
2011,10,15,02,12,6.10
2011,10,15,02,13,6.00
2011,10,15,02,14,6.00
2011,10,15,02,15,6.00
2011,10,15,02,16,6.00
2011,10,15,02,17,6.00
2011,10,15,02,18,6.00
2011,10,15,02,19,5.90
2011,10,15,02,20,5.90
2011,10,15,02,21,5.90
2011,10,15,02,22,5.90
2011,10,15,02,23,5.90
2011,10,15,02,24,5.90
2011,10,15,02,25,5.90
2011,10,15,02,26,6.00
2011,10,15,02,27,6.10
2011,10,15,02,28,6.10
2011,10,15,02,29,6.20
2011,10,15,02,30,6.20
2011,10,15,02,31,6.30
2011,10,15,02,33,6.20
2011,10,15,02,34,6.20
2011,10,15,02,35,6.20
2011,10,15,02,36,6.20
2011,10,15,02,38,6.10
2011,10,15,02,39,6.10
2011,10,15,02,40,6.10
2011,10,15,02,41,6.10
2011,10,15,02,42,6.10
2011,10,15,02,43,6.10
2011,10,15,02,44,6.10
2011,10,15,02,45,6.10
2011,10,15,02,47,6.10
2011,10,15,02,48,6.20
2011,10,15,02,49,6.20
2011,10,15,02,51,6.20
2011,10,15,02,52,6.10
2011,10,15,02,53,6.10
2011,10,15,02,54,5.90
2011,10,15,02,56,5.90
2011,10,15,02,57,5.80
2011,10,15,02,58,5.80
2011,10,15,02,59,5.70
2011,10,15,03,00,5.70
2011,10,15,03,02,5.60
2011,10,15,03,03,5.50
2011,10,15,03,04,5.40
2011,10,15,03,05,5.30
2011,10,15,03,07,5.30
2011,10,15,03,08,5.20
2011,10,15,03,09,5.10
2011,10,15,03,10,5.10
2011,10,15,03,12,5.00
2011,10,15,03,13,4.90
2011,10,15,03,14,4.90
2011,10,15,03,15,4.80
2011,10,15,03,16,4.80
2011,10,15,03,17,4.80
2011,10,15,03,18,4.70
2011,10,15,03,19,4.70
2011,10,15,03,20,4.70
2011,10,15,03,22,4.60
2011,10,15,03,23,4.60
2011,10,15,03,24,4.50
2011,10,15,03,25,4.50
2011,10,15,03,26,4.50
2011,10,15,03,28,4.50
2011,10,15,03,29,4.40
2011,10,15,03,30,4.40
2011,10,15,03,31,4.40
2011,10,15,03,32,4.40
2011,10,15,03,33,4.40
2011,10,15,03,34,4.40
2011,10,15,03,35,4.40
2011,10,15,03,36,4.30
2011,10,15,03,37,4.30
2011,10,15,03,38,4.30
2011,10,15,03,39,4.30
2011,10,15,03,41,4.30
2011,10,15,03,42,4.30
2011,10,15,03,43,4.30
2011,10,15,03,45,4.30
2011,10,15,03,46,4.30
2011,10,15,03,47,4.30
2011,10,15,03,49,4.30
2011,10,15,03,50,4.20
2011,10,15,03,51,4.20
2011,10,15,03,52,4.20
2011,10,15,03,54,4.20
2011,10,15,03,55,4.10
2011,10,15,03,56,4.10
2011,10,15,03,57,4.10
2011,10,15,03,58,4.10
2011,10,15,04,00,4.10
2011,10,15,04,01,4.00
2011,10,15,04,02,4.00
2011,10,15,04,03,4.10
2011,10,15,04,05,4.10
2011,10,15,04,06,4.10
2011,10,15,04,07,4.00
2011,10,15,04,08,4.00
2011,10,15,04,10,3.90
2011,10,15,04,11,3.80
2011,10,15,04,12,3.80
2011,10,15,04,13,3.80
2011,10,15,04,14,3.80
2011,10,15,04,16,3.80
2011,10,15,04,17,3.80
2011,10,15,04,18,3.80
2011,10,15,04,19,3.80
2011,10,15,04,21,3.80
2011,10,15,04,22,3.70
2011,10,15,04,23,3.70
2011,10,15,04,24,3.70
2011,10,15,04,25,3.70
2011,10,15,04,26,3.70
2011,10,15,04,27,3.80
2011,10,15,04,28,3.80
2011,10,15,04,29,3.80
2011,10,15,04,30,3.80
2011,10,15,04,31,3.90
2011,10,15,04,32,3.90
2011,10,15,04,33,4.00
2011,10,15,04,34,4.10
2011,10,15,04,35,4.10
2011,10,15,04,36,4.20
2011,10,15,04,37,4.20
2011,10,15,04,38,4.30
2011,10,15,04,39,4.30
2011,10,15,04,40,4.40
2011,10,15,04,42,4.40
2011,10,15,04,43,4.60
2011,10,15,04,44,4.60
2011,10,15,04,45,4.70
2011,10,15,04,47,4.80
2011,10,15,04,48,4.80
2011,10,15,04,49,4.80
2011,10,15,04,50,4.90
2011,10,15,04,52,4.90
2011,10,15,04,53,5.00
2011,10,15,04,54,5.00
2011,10,15,04,55,5.00
2011,10,15,04,57,5.00
2011,10,15,04,58,5.00
2011,10,15,04,59,5.00
2011,10,15,05,00,5.10
2011,10,15,05,01,5.10
2011,10,15,05,02,5.10
2011,10,15,05,03,5.10
2011,10,15,05,04,5.10
2011,10,15,05,05,5.00
2011,10,15,05,07,5.10
2011,10,15,05,08,5.10
2011,10,15,05,09,5.10
2011,10,15,05,10,5.10
2011,10,15,05,12,5.10
2011,10,15,05,13,5.10
2011,10,15,05,14,5.10
2011,10,15,05,15,5.10
2011,10,15,05,16,5.10
2011,10,15,05,17,5.10
2011,10,15,05,18,5.10
2011,10,15,05,19,5.10
2011,10,15,05,20,5.10
2011,10,15,05,22,5.20
2011,10,15,05,23,5.20
2011,10,15,05,24,5.30
2011,10,15,05,25,5.30
2011,10,15,05,26,5.40
2011,10,15,05,28,5.40
2011,10,15,05,29,5.40
2011,10,15,05,30,5.40
2011,10,15,05,31,5.50
2011,10,15,05,33,5.50
2011,10,15,05,34,5.50
2011,10,15,05,35,5.50
2011,10,15,05,36,5.60
2011,10,15,05,38,5.60
2011,10,15,05,39,5.60
2011,10,15,05,40,5.60
2011,10,15,05,41,5.60
2011,10,15,05,42,5.60
2011,10,15,05,43,5.70
2011,10,15,05,44,5.70
2011,10,15,05,45,5.70
2011,10,15,05,46,5.80
2011,10,15,05,47,5.80
2011,10,15,05,48,5.90
2011,10,15,05,49,5.90
2011,10,15,05,50,6.00
2011,10,15,05,52,6.10
2011,10,15,05,53,6.10
2011,10,15,05,54,6.10
2011,10,15,05,55,6.20
2011,10,15,05,57,6.20
2011,10,15,05,58,6.20
2011,10,15,05,59,6.20
2011,10,15,06,00,6.20
2011,10,15,06,02,6.20
2011,10,15,06,03,6.20
2011,10,15,06,04,6.20
2011,10,15,06,05,6.20
2011,10,15,06,07,6.20
2011,10,15,06,08,6.20
2011,10,15,06,09,6.20
2011,10,15,06,10,6.20
2011,10,15,06,11,6.20
2011,10,15,06,12,6.20
2011,10,15,06,13,6.20
2011,10,15,06,14,6.20
2011,10,15,06,15,6.20
2011,10,15,06,16,6.20
2011,10,15,06,17,6.20
2011,10,15,06,18,6.20
2011,10,15,06,19,6.20
2011,10,15,06,20,6.20
2011,10,15,06,22,6.20
2011,10,15,06,23,6.20
2011,10,15,06,24,6.20
2011,10,15,06,26,6.30
2011,10,15,06,27,6.30
2011,10,15,06,28,6.30
2011,10,15,06,30,6.30
2011,10,15,06,31,6.30
2011,10,15,06,32,6.30
2011,10,15,06,33,6.20
2011,10,15,06,34,6.20
2011,10,15,06,35,6.20
2011,10,15,06,36,6.20
2011,10,15,06,37,6.20
2011,10,15,06,38,6.10
2011,10,15,06,39,6.10
2011,10,15,06,40,6.10
2011,10,15,06,41,6.10
2011,10,15,06,42,6.10
2011,10,15,06,43,6.10
2011,10,15,06,44,6.10
2011,10,15,06,45,6.10
2011,10,15,06,46,6.00
2011,10,15,06,47,6.00
2011,10,15,06,48,6.10
2011,10,15,06,49,6.00
2011,10,15,06,50,6.10
2011,10,15,06,51,6.00
2011,10,15,06,52,5.90
2011,10,15,06,53,5.90
2011,10,15,06,54,5.80
2011,10,15,06,55,5.80
2011,10,15,06,56,5.70
2011,10,15,06,57,5.70
2011,10,15,06,58,5.60
2011,10,15,06,59,5.60
2011,10,15,07,00,5.50
2011,10,15,07,01,5.50
2011,10,15,07,02,5.40
2011,10,15,07,03,5.40
2011,10,15,07,05,5.40
2011,10,15,07,06,5.30
2011,10,15,07,07,5.30
2011,10,15,07,08,5.30
2011,10,15,07,09,5.30
2011,10,15,07,10,5.30
2011,10,15,07,11,5.30
2011,10,15,07,12,5.30
2011,10,15,07,13,5.30
2011,10,15,07,14,5.30
2011,10,15,07,15,5.30
2011,10,15,07,16,5.40
2011,10,15,07,17,5.40
2011,10,15,07,18,5.40
2011,10,15,07,19,5.40
2011,10,15,07,21,5.40
2011,10,15,07,22,5.40
2011,10,15,07,23,5.40
2011,10,15,07,24,5.40
2011,10,15,07,26,5.40
2011,10,15,07,27,5.40
2011,10,15,07,28,5.30
2011,10,15,07,29,5.30
2011,10,15,07,30,5.30
2011,10,15,07,32,5.30
2011,10,15,07,33,5.20
2011,10,15,07,34,5.20
2011,10,15,07,35,5.10
2011,10,15,07,37,5.10
2011,10,15,07,38,5.00
2011,10,15,07,39,5.00
2011,10,15,07,40,4.90
2011,10,15,07,42,4.90
2011,10,15,07,43,4.90
2011,10,15,07,44,4.90
2011,10,15,07,46,4.90
2011,10,15,07,47,4.90
2011,10,15,07,48,4.90
2011,10,15,07,49,4.90
2011,10,15,07,51,5.00
2011,10,15,07,52,5.10
2011,10,15,07,53,5.10
2011,10,15,07,54,5.20
2011,10,15,07,55,5.20
2011,10,15,07,57,5.20
2011,10,15,07,58,5.30
2011,10,15,07,59,5.30
2011,10,15,08,00,5.30
2011,10,15,08,01,5.30
2011,10,15,08,03,5.40
2011,10,15,08,04,5.40
2011,10,15,08,05,5.40
2011,10,15,08,06,5.40
2011,10,15,08,08,5.40
2011,10,15,08,09,5.40
2011,10,15,08,10,5.50
2011,10,15,08,11,5.50
2011,10,15,08,13,5.50
2011,10,15,08,14,5.50
2011,10,15,08,15,5.50
2011,10,15,08,16,5.50
2011,10,15,08,17,5.40
2011,10,15,08,19,5.40
2011,10,15,08,20,5.40
2011,10,15,08,21,5.40
2011,10,15,08,22,5.40
2011,10,15,08,24,5.50
2011,10,15,08,25,5.50
2011,10,15,08,26,5.60
2011,10,15,08,27,5.60
2011,10,15,08,29,5.60
2011,10,15,08,30,5.60
2011,10,15,08,31,5.60
2011,10,15,08,32,5.60
2011,10,15,08,34,5.60
2011,10,15,08,35,5.70
2011,10,15,08,36,5.70
2011,10,15,08,37,5.70
2011,10,15,08,39,5.70
2011,10,15,08,40,5.80
2011,10,15,08,41,5.90
2011,10,15,08,43,5.90
2011,10,15,08,44,6.00
2011,10,15,08,45,6.00
2011,10,15,08,46,6.10
2011,10,15,08,47,6.10
2011,10,15,08,48,6.20
2011,10,15,08,49,6.20
2011,10,15,08,50,6.20
2011,10,15,08,52,6.30
2011,10,15,08,53,6.30
2011,10,15,08,54,6.40
2011,10,15,08,55,6.50
2011,10,15,08,56,6.50
2011,10,15,08,57,6.60
2011,10,15,08,58,6.60
2011,10,15,08,59,6.70
2011,10,15,09,00,6.70
2011,10,15,09,01,6.80
2011,10,15,09,02,6.80
2011,10,15,09,03,6.80
2011,10,15,09,04,6.80
2011,10,15,09,05,6.90
2011,10,15,09,06,6.90
2011,10,15,09,07,6.90
2011,10,15,09,08,7.00
2011,10,15,09,09,7.10
2011,10,15,09,10,7.10
2011,10,15,09,11,7.10
2011,10,15,09,13,7.20
2011,10,15,09,14,7.20
2011,10,15,09,15,7.30
2011,10,15,09,16,7.30
2011,10,15,09,17,7.40
2011,10,15,09,18,7.40
2011,10,15,09,19,7.40
2011,10,15,09,20,7.40
2011,10,15,09,21,7.50
2011,10,15,09,22,7.60
2011,10,15,09,24,7.60
2011,10,15,09,25,7.70
2011,10,15,09,26,7.70
2011,10,15,09,27,7.70
2011,10,15,09,28,7.80
2011,10,15,09,29,7.80
2011,10,15,09,30,7.80
2011,10,15,09,31,7.90
2011,10,15,09,32,7.90
2011,10,15,09,34,7.90
2011,10,15,09,35,7.90
2011,10,15,09,36,8.00
2011,10,15,09,37,8.00
2011,10,15,09,39,8.10
2011,10,15,09,40,8.10
2011,10,15,09,41,8.10
2011,10,15,09,42,8.10
2011,10,15,09,43,8.10
2011,10,15,09,45,8.10
2011,10,15,09,46,8.20
2011,10,15,09,47,8.20
2011,10,15,09,48,8.20
2011,10,15,09,49,8.20
2011,10,15,09,50,8.20
2011,10,15,09,51,8.30
2011,10,15,09,52,8.30
2011,10,15,09,53,8.30
2011,10,15,09,54,8.30
2011,10,15,09,55,8.30
2011,10,15,09,56,8.30
2011,10,15,09,58,8.30
2011,10,15,09,59,8.40
2011,10,15,10,00,8.40
2011,10,15,10,01,8.40
2011,10,15,10,02,8.40
2011,10,15,10,03,8.40
2011,10,15,10,04,8.40
2011,10,15,10,05,8.50
2011,10,15,10,07,8.50
2011,10,15,10,08,8.50
2011,10,15,10,09,8.50
2011,10,15,10,10,8.50
2011,10,15,10,12,8.60
2011,10,15,10,13,8.60
2011,10,15,10,14,8.60
2011,10,15,10,15,8.60
2011,10,15,10,16,8.60
2011,10,15,10,18,8.60
2011,10,15,10,19,8.60
2011,10,15,10,20,8.60
2011,10,15,10,21,8.60
2011,10,15,10,22,8.60
2011,10,15,10,23,8.60
2011,10,15,10,24,8.60
2011,10,15,10,25,8.60
2011,10,15,10,27,8.60
2011,10,15,10,28,8.60
2011,10,15,10,29,8.60
2011,10,15,10,30,8.60
2011,10,15,10,31,8.70
2011,10,15,10,33,8.70
2011,10,15,10,34,8.70
2011,10,15,10,35,8.70
2011,10,15,10,36,8.70
2011,10,15,10,38,8.70
2011,10,15,10,39,8.70
2011,10,15,10,40,8.80
2011,10,15,10,41,8.80
2011,10,15,10,43,8.80
2011,10,15,10,44,8.80
2011,10,15,10,45,8.90
2011,10,15,10,46,8.90
2011,10,15,10,48,8.90
2011,10,15,10,49,9.00
2011,10,15,10,50,9.00
2011,10,15,10,51,9.10
2011,10,15,10,53,9.10
2011,10,15,10,54,9.10
2011,10,15,10,55,9.10
2011,10,15,10,56,9.20
2011,10,15,10,58,9.20
2011,10,15,10,59,9.20
2011,10,15,11,00,9.30
2011,10,15,11,02,9.30
2011,10,15,11,03,9.30
2011,10,15,11,04,9.40
2011,10,15,11,05,9.40
2011,10,15,11,07,9.40
2011,10,15,11,08,9.40
2011,10,15,11,09,9.50
2011,10,15,11,10,9.50
2011,10,15,11,12,9.60
2011,10,15,11,13,9.60
2011,10,15,11,14,9.60
2011,10,15,11,15,9.60
2011,10,15,11,17,9.60
2011,10,15,11,18,9.60
2011,10,15,11,19,9.60
2011,10,15,11,20,9.60
2011,10,15,11,21,9.70
2011,10,15,11,22,9.70
2011,10,15,11,23,9.70
2011,10,15,11,24,9.70
2011,10,15,11,25,9.80
2011,10,15,11,27,9.80
2011,10,15,11,28,9.80
2011,10,15,11,29,9.80
2011,10,15,11,30,9.80
2011,10,15,11,32,9.90
2011,10,15,11,33,9.90
2011,10,15,11,34,10.00
2011,10,15,11,35,10.00
2011,10,15,11,37,10.00
2011,10,15,11,38,10.10
2011,10,15,11,39,10.00
2011,10,15,11,40,10.10
2011,10,15,11,42,10.10
2011,10,15,11,43,10.10
2011,10,15,11,44,10.10
2011,10,15,11,45,10.10
2011,10,15,11,46,10.10
2011,10,15,11,47,10.20
2011,10,15,11,48,10.20
2011,10,15,11,49,10.20
2011,10,15,11,50,10.20
2011,10,15,11,51,10.30
2011,10,15,11,52,10.30
2011,10,15,11,53,10.30
2011,10,15,11,54,10.30
2011,10,15,11,55,10.30
2011,10,15,11,56,10.30
2011,10,15,11,57,10.30
2011,10,15,11,58,10.30
2011,10,15,11,59,10.30
2011,10,15,12,00,10.30
2011,10,15,12,01,10.40
2011,10,15,12,02,10.40
2011,10,15,12,03,10.40
2011,10,15,12,04,10.50
2011,10,15,12,05,10.60
2011,10,15,12,06,10.60
2011,10,15,12,07,10.60
2011,10,15,12,09,10.60
2011,10,15,12,10,10.60
2011,10,15,12,11,10.50
2011,10,15,12,12,10.60
2011,10,15,12,14,10.60
2011,10,15,12,15,10.50
2011,10,15,12,16,10.50
2011,10,15,12,17,10.50
2011,10,15,12,18,10.60
2011,10,15,12,19,10.60
2011,10,15,12,20,10.60
2011,10,15,12,21,10.70
2011,10,15,12,22,10.70
2011,10,15,12,23,10.70
2011,10,15,12,24,10.70
2011,10,15,12,25,10.70
2011,10,15,12,26,10.70
2011,10,15,12,27,10.70
2011,10,15,12,28,10.60
2011,10,15,12,29,10.60
2011,10,15,12,30,10.40
2011,10,15,12,31,10.40
2011,10,15,12,32,10.40
2011,10,15,12,34,10.30
2011,10,15,12,35,10.30
2011,10,15,12,36,10.30
2011,10,15,12,37,10.30
2011,10,15,12,39,10.20
2011,10,15,12,40,10.20
2011,10,15,12,41,10.20
2011,10,15,12,42,10.20
2011,10,15,12,44,10.20
2011,10,15,12,45,10.20
2011,10,15,12,46,10.30
2011,10,15,12,47,10.30
2011,10,15,12,48,10.30
2011,10,15,12,50,10.30
2011,10,15,12,51,10.30
2011,10,15,12,52,10.30
2011,10,15,12,53,10.30
2011,10,15,12,54,10.20
2011,10,15,12,55,10.20
2011,10,15,12,56,10.30
2011,10,15,12,57,10.30
2011,10,15,12,58,10.30
2011,10,15,12,59,10.30
2011,10,15,13,00,10.30
2011,10,15,13,01,10.20
2011,10,15,13,02,10.20
2011,10,15,13,03,10.20
2011,10,15,13,04,10.20
2011,10,15,13,05,10.30
2011,10,15,13,06,10.30
2011,10,15,13,07,10.30
2011,10,15,13,08,10.30
2011,10,15,13,09,10.30
2011,10,15,13,11,10.30
2011,10,15,13,12,10.30
2011,10,15,13,13,10.30
2011,10,15,13,14,10.30
2011,10,15,13,15,10.40
2011,10,15,13,17,10.50
2011,10,15,13,18,10.60
2011,10,15,13,19,10.60
2011,10,15,13,20,10.60
2011,10,15,13,21,10.60
2011,10,15,13,22,10.60
2011,10,15,13,23,10.50
2011,10,15,13,24,10.40
2011,10,15,13,25,10.40
2011,10,15,13,26,10.50
2011,10,15,13,28,10.60
2011,10,15,13,29,10.60
2011,10,15,13,30,10.60
2011,10,15,13,31,10.60
2011,10,15,13,33,10.60
2011,10,15,13,34,10.60
2011,10,15,13,35,10.60
2011,10,15,13,36,10.60
2011,10,15,13,37,10.60
2011,10,15,13,39,10.60
2011,10,15,13,40,10.70
2011,10,15,13,41,10.70
2011,10,15,13,43,10.80
2011,10,15,13,44,10.80
2011,10,15,13,45,10.90
2011,10,15,13,46,10.90
2011,10,15,13,47,10.90
2011,10,15,13,48,10.90
2011,10,15,13,50,11.00
2011,10,15,13,51,11.10
2011,10,15,13,52,11.10
2011,10,15,13,53,11.10
2011,10,15,13,55,11.10
2011,10,15,13,56,11.10
2011,10,15,13,57,11.10
2011,10,15,13,58,11.10
2011,10,15,14,00,11.10
2011,10,15,14,01,11.10
2011,10,15,14,02,11.20
2011,10,15,14,03,11.20
2011,10,15,14,05,11.20
2011,10,15,14,06,11.10
2011,10,15,14,07,11.00
2011,10,15,14,08,10.90
2011,10,15,14,09,10.90
2011,10,15,14,11,10.90
2011,10,15,14,12,11.00
2011,10,15,14,13,11.00
2011,10,15,14,14,11.10
2011,10,15,14,15,11.10
2011,10,15,14,17,11.20
2011,10,15,14,18,11.30
2011,10,15,14,19,11.30
2011,10,15,14,20,11.30
2011,10,15,14,22,11.40
2011,10,15,14,23,11.30
2011,10,15,14,24,11.30
2011,10,15,14,25,11.30
2011,10,15,14,27,11.30
2011,10,15,14,28,11.30
2011,10,15,14,29,11.30
2011,10,15,14,30,11.40
2011,10,15,14,31,11.30
2011,10,15,14,33,11.30
2011,10,15,14,34,11.30
2011,10,15,14,35,11.40
2011,10,15,14,36,11.40
2011,10,15,14,37,11.40
2011,10,15,14,39,11.50
2011,10,15,14,40,11.50
2011,10,15,14,41,11.60
2011,10,15,14,43,11.60
2011,10,15,14,44,11.70
2011,10,15,14,45,11.70
2011,10,15,14,46,11.70
2011,10,15,14,47,11.70
2011,10,15,14,48,11.70
2011,10,15,14,49,11.70
2011,10,15,14,50,11.70
2011,10,15,14,51,11.60
2011,10,15,14,52,11.60
2011,10,15,14,54,11.60
2011,10,15,14,55,11.60
2011,10,15,14,56,11.70
2011,10,15,14,58,11.70
2011,10,15,14,59,11.70
2011,10,15,15,00,11.80
2011,10,15,15,01,11.80
2011,10,15,15,02,11.80
2011,10,15,15,03,11.80
2011,10,15,15,04,11.80
2011,10,15,15,05,11.80
2011,10,15,15,07,11.80
2011,10,15,15,08,11.80
2011,10,15,15,09,11.80
2011,10,15,15,11,11.80
2011,10,15,15,12,11.70
2011,10,15,15,13,11.70
2011,10,15,15,14,11.70
2011,10,15,15,16,11.80
2011,10,15,15,17,11.80
2011,10,15,15,18,11.80
2011,10,15,15,20,11.80
2011,10,15,15,21,11.90
2011,10,15,15,22,12.10
2011,10,15,15,23,12.10
2011,10,15,15,25,12.10
2011,10,15,15,26,12.10
2011,10,15,15,27,12.10
2011,10,15,15,28,12.10
2011,10,15,15,30,12.10
2011,10,15,15,31,12.10
2011,10,15,15,32,12.10
2011,10,15,15,33,12.10
2011,10,15,15,35,12.10
2011,10,15,15,36,12.10
2011,10,15,15,37,12.10
2011,10,15,15,38,12.10
2011,10,15,15,39,12.10
2011,10,15,15,41,12.10
2011,10,15,15,42,12.10
2011,10,15,15,43,12.00
2011,10,15,15,44,12.10
2011,10,15,15,45,12.10
2011,10,15,15,46,12.10
2011,10,15,15,48,12.20
2011,10,15,15,49,12.30
2011,10,15,15,50,12.20
2011,10,15,15,51,12.20
2011,10,15,15,52,12.20
2011,10,15,15,53,12.20
2011,10,15,15,54,12.20
2011,10,15,15,55,12.20
2011,10,15,15,56,12.30
2011,10,15,15,57,12.30
2011,10,15,15,58,12.30
2011,10,15,15,59,12.30
2011,10,15,16,00,12.30
2011,10,15,16,01,12.20
2011,10,15,16,02,12.20
2011,10,15,16,03,12.20
2011,10,15,16,04,12.10
2011,10,15,16,05,12.10
2011,10,15,16,07,12.10
2011,10,15,16,08,12.10
2011,10,15,16,09,12.10
2011,10,15,16,10,12.10
2011,10,15,16,12,12.10
2011,10,15,16,13,12.10
2011,10,15,16,14,12.00
2011,10,15,16,15,12.00
2011,10,15,16,17,12.00
2011,10,15,16,18,12.10
2011,10,15,16,19,12.10
2011,10,15,16,20,12.10
2011,10,15,16,21,12.10
2011,10,15,16,23,12.20
2011,10,15,16,24,12.20
2011,10,15,16,25,12.30
2011,10,15,16,26,12.40
2011,10,15,16,27,12.40
2011,10,15,16,29,12.50
2011,10,15,16,30,12.60
2011,10,15,16,31,12.60
2011,10,15,16,32,12.60
2011,10,15,16,33,12.60
2011,10,15,16,35,12.70
2011,10,15,16,36,12.60
2011,10,15,16,37,12.60
2011,10,15,16,38,12.50
2011,10,15,16,39,12.50
2011,10,15,16,40,12.40
2011,10,15,16,41,12.40
2011,10,15,16,42,12.50
2011,10,15,16,43,12.50
2011,10,15,16,44,12.50
2011,10,15,16,45,12.50
2011,10,15,16,46,12.50
2011,10,15,16,47,12.50
2011,10,15,16,48,12.50
2011,10,15,16,49,12.60
2011,10,15,16,50,12.60
2011,10,15,16,51,12.60
2011,10,15,16,52,12.60
2011,10,15,16,53,12.50
2011,10,15,16,54,12.50
2011,10,15,16,55,12.40
2011,10,15,16,56,12.40
2011,10,15,16,57,12.30
2011,10,15,16,58,12.30
2011,10,15,16,59,12.30
2011,10,15,17,00,12.30
2011,10,15,17,01,12.20
2011,10,15,17,02,12.10
2011,10,15,17,04,12.10
2011,10,15,17,05,12.00
2011,10,15,17,06,12.00
2011,10,15,17,07,11.90
2011,10,15,17,09,11.90
2011,10,15,17,10,12.00
2011,10,15,17,11,12.10
2011,10,15,17,12,12.10
2011,10,15,17,14,12.00
2011,10,15,17,15,12.00
2011,10,15,17,16,12.10
2011,10,15,17,17,12.10
2011,10,15,17,19,12.10
2011,10,15,17,20,12.10
2011,10,15,17,21,12.20
2011,10,15,17,22,12.10
2011,10,15,17,24,12.10
2011,10,15,17,25,12.10
2011,10,15,17,26,12.20
2011,10,15,17,27,12.20
2011,10,15,17,28,12.10
2011,10,15,17,29,12.20
2011,10,15,17,30,12.20
2011,10,15,17,31,12.20
2011,10,15,17,32,12.20
2011,10,15,17,34,12.20
2011,10,15,17,35,12.20
2011,10,15,17,36,12.10
2011,10,15,17,37,12.10
2011,10,15,17,38,12.10
2011,10,15,17,40,12.10
2011,10,15,17,41,12.10
2011,10,15,17,42,12.10
2011,10,15,17,43,12.00
2011,10,15,17,44,11.90
2011,10,15,17,45,11.80
2011,10,15,17,46,11.80
2011,10,15,17,47,11.70
2011,10,15,17,48,11.70
2011,10,15,17,50,11.70
2011,10,15,17,51,11.60
2011,10,15,17,52,11.50
2011,10,15,17,53,11.40
2011,10,15,17,54,11.40
2011,10,15,17,55,11.30
2011,10,15,17,56,11.30
2011,10,15,17,57,11.20
2011,10,15,17,59,11.20
2011,10,15,18,00,11.20
2011,10,15,18,01,11.10
2011,10,15,18,02,11.10
2011,10,15,18,04,11.10
2011,10,15,18,05,11.10
2011,10,15,18,06,11.00
2011,10,15,18,07,10.90
2011,10,15,18,08,10.90
2011,10,15,18,09,10.90
2011,10,15,18,10,10.80
2011,10,15,18,11,10.80
2011,10,15,18,12,10.70
2011,10,15,18,13,10.70
2011,10,15,18,14,10.70
2011,10,15,18,15,10.70
2011,10,15,18,16,10.60
2011,10,15,18,17,10.60
2011,10,15,18,18,10.50
2011,10,15,18,20,10.40
2011,10,15,18,21,10.40
2011,10,15,18,22,10.30
2011,10,15,18,23,10.30
2011,10,15,18,24,10.30
2011,10,15,18,25,10.30
2011,10,15,18,26,10.20
2011,10,15,18,27,10.20
2011,10,15,18,29,10.10
2011,10,15,18,30,10.10
2011,10,15,18,31,10.10
2011,10,15,18,32,10.00
2011,10,15,18,33,10.00
2011,10,15,18,34,9.90
2011,10,15,18,35,9.90
2011,10,15,18,36,9.90
2011,10,15,18,37,9.90
2011,10,15,18,38,9.80
2011,10,15,18,39,9.80
2011,10,15,18,40,9.80
2011,10,15,18,41,9.80
2011,10,15,18,43,9.80
2011,10,15,18,44,9.70
2011,10,15,18,45,9.70
2011,10,15,18,46,9.70
2011,10,15,18,48,9.70
2011,10,15,18,49,9.60
2011,10,15,18,50,9.60
2011,10,15,18,51,9.60
2011,10,15,18,53,9.60
2011,10,15,18,54,9.60
2011,10,15,18,55,9.50
2011,10,15,18,56,9.50
2011,10,15,18,58,9.40
2011,10,15,18,59,9.40
2011,10,15,19,00,9.40
2011,10,15,19,01,9.40
2011,10,15,19,03,9.30
2011,10,15,19,04,9.30
2011,10,15,19,05,9.30
2011,10,15,19,06,9.20
2011,10,15,19,08,9.20
2011,10,15,19,09,9.20
2011,10,15,19,10,9.20
2011,10,15,19,11,9.20
2011,10,15,19,13,9.10
2011,10,15,19,14,9.10
2011,10,15,19,15,9.10
2011,10,15,19,16,9.00
2011,10,15,19,17,9.00
2011,10,15,19,18,9.00
2011,10,15,19,19,8.90
2011,10,15,19,20,8.90
2011,10,15,19,21,8.90
2011,10,15,19,22,8.90
2011,10,15,19,23,8.90
2011,10,15,19,24,8.90
2011,10,15,19,25,8.80
2011,10,15,19,27,8.80
2011,10,15,19,28,8.80
2011,10,15,19,29,8.80
2011,10,15,19,30,8.80
2011,10,15,19,31,8.70
2011,10,15,19,32,8.70
2011,10,15,19,33,8.70
2011,10,15,19,34,8.70
2011,10,15,19,35,8.60
2011,10,15,19,36,8.60
2011,10,15,19,37,8.60
2011,10,15,19,38,8.60
2011,10,15,19,39,8.50
2011,10,15,19,40,8.40
2011,10,15,19,41,8.40
2011,10,15,19,42,8.40
2011,10,15,19,43,8.40
2011,10,15,19,44,8.30
2011,10,15,19,45,8.30
2011,10,15,19,46,8.20
2011,10,15,19,47,8.20
2011,10,15,19,48,8.20
2011,10,15,19,49,8.20
2011,10,15,19,50,8.10
2011,10,15,19,51,8.10
2011,10,15,19,52,8.10
2011,10,15,19,53,8.00
2011,10,15,19,54,8.00
2011,10,15,19,55,7.90
2011,10,15,19,56,7.90
2011,10,15,19,57,7.90
2011,10,15,19,58,7.90
2011,10,15,19,59,7.90
2011,10,15,20,00,7.90
2011,10,15,20,01,7.90
2011,10,15,20,02,7.80
2011,10,15,20,03,7.80
2011,10,15,20,04,7.80
2011,10,15,20,05,7.80
2011,10,15,20,06,7.70
2011,10,15,20,07,7.70
2011,10,15,20,08,7.70
2011,10,15,20,10,7.60
2011,10,15,20,11,7.60
2011,10,15,20,12,7.60
2011,10,15,20,13,7.50
2011,10,15,20,14,7.40
2011,10,15,20,15,7.40
2011,10,15,20,16,7.40
2011,10,15,20,17,7.40
2011,10,15,20,18,7.30